Location: Montreal
(45.5087°N, 73.5540°W)
Time: 12:39:29
(UTC-04:00)

X-37B - Pass Details

Date: 02 October 2021
Orbit: 385 x 389 km, 45.0° (Epoch: 13 October)

Event Time Altitude Azimuth Distance (km) Brightness Sun altitude
Exits shadow 05:29:45 35° 227° (SW) 645 1.2 -15.5°
Maximum altitude 05:30:15 38° 201° (SSW) 607 1.3 -15.4°
Drops below altitude 10° 05:33:14 10° 132° (SE) 1,409 3.9 -14.9°
Sets 05:35:22 0° 124° (SE) 2,262 5.2 -14.6°
